Flag for Italy Weather past 2 weeks in Varese, Italy

Now
69 °F

Mild.


Feels Like: 69 °F
Forecast: 54 / 71 °F
Wind: 2 mph from South

Location: Stabio

Current Time: Sep 3, 2015 at 7:20:41 PM

Latest Report: Sep 3, 2015 at 6:00 PM


Visibility: N/A

Pressure: 29.82 "Hg

Humidity: 75%

Dew point: 60 °F

Location of VareseLocation

Historic Weather in Varese — Graph

°F

Varese temperature yesterday

Maximum temperature yesterday: 76 °F (at 4:00 PM)
Minimum temperature yesterday: 62 °F (at 3:00 AM)
Average temperature yesterday: 68 °F

Past Weeks' High & Low Weather Summary

 TemperatureHumidityPressure
High85 °F (Aug 30, 2:00 PM)99% (Aug 19, 11:00 PM)30.22 "Hg (Aug 19, 11:00 PM)
Low53 °F (Aug 20, 7:00 AM)41% (Aug 20, 5:00 PM)29.82 "Hg (Sep 3, 6:00 PM)
Average68 °F79%30.03 "Hg
* Reported Aug 19 6:00 PM — Sep 3 6:00 PM, Varese, Weather by CustomWeather, © 2015

Note: Actual official high and low records may vary slightly from our data, if they occured in-between our weather recording intervals... More about our weather records

Advertising

Varese weather history for previous 24 hours

 ConditionsComfort  
Time TempWeatherWind HumidityBarometerVisibility
6:00 PM
Thu, Sep 3
69 °FMild.2 mph75%29.82 "HgN/A
5:00 PM73 °FMild.1 mph59%29.83 "HgN/A
4:00 PM72 °FMild.2 mph66%29.84 "HgN/A
3:00 PM71 °FMild.1 mph72%29.86 "HgN/A
2:00 PM70 °FMild.1 mph73%29.88 "HgN/A
1:00 PM70 °FMild.1 mph76%29.89 "HgN/A
12:00 PM67 °FMild.No wind83%29.90 "HgN/A
11:00 AM65 °FMild.2 mph90%29.91 "HgN/A
10:00 AM64 °FMild.1 mph93%29.91 "HgN/A
9:00 AM64 °FMild.No wind91%29.91 "HgN/A
8:00 AM62 °FCool.1 mph93%29.90 "HgN/A
7:00 AM60 °FCool.1 mph99%29.90 "HgN/A
5:00 AM60 °FCool.No wind99%29.91 "HgN/A
4:00 AM62 °FCool.1 mph99%29.91 "HgN/A
3:00 AM62 °FCool.2 mph97%29.90 "HgN/A
2:00 AM63 °FMild.1 mph92%29.90 "HgN/A
1:00 AM63 °FMild.1 mph96%29.90 "HgN/A
12:00 AM64 °FMild.1 mph96%29.89 "HgN/A
10:00 PM
Wed, Sep 2
65 °FMild.8 mph85%29.86 "HgN/A
9:00 PM65 °FMild.No wind81%29.85 "HgN/A
8:00 PM67 °FMild.1 mph81%29.83 "HgN/A
7:00 PM73 °FMild.3 mph62%29.83 "HgN/A
Weather by CustomWeather, © 2015

See weather overviewHow to use our weather pages